GLD166 SNSG-SNRU

Flight info

Callsign GLD166
Flight time N/A
Altitude 5500
Route 0806S03844W 0809S03831W 0816S03802W 0818S03735W 0823S03706W 0819S03617W
Aircraft C182/M-SDFGIRY/S

Departure

Time 2026-04-16 16:47
Airport Salgueiro Airport (SNSG)

Arrival

Time N/A
Airport Caruaru Airport (SNRU)
Time Latitude Longitude Altitude Speed Heading
2026-04-16 16:45 -8.04517 -39.13539 1544 ft 0 kts 94°
2026-04-16 16:45 -8.04516 -39.13518 1543 ft 7 kts 70°
2026-04-16 16:46 -8.04514 -39.13513 1541 ft 0 kts 56°
2026-04-16 16:46 -8.04513 -39.13512 1541 ft 0 kts 56°
2026-04-16 16:46 -8.04501 -39.13487 1546 ft 10 kts 78°
2026-04-16 16:46 -8.04635 -39.13361 1542 ft 49 kts 143°
2026-04-16 16:47 -8.04993 -39.13090 1620 ft 70 kts 141°
2026-04-16 16:47 -8.05360 -39.12732 1763 ft 85 kts 118°
2026-04-16 16:47 -8.05315 -39.12177 2082 ft 78 kts 55°
2026-04-16 16:47 -8.04797 -39.11803 2206 ft 97 kts 34°
2026-04-16 16:48 -8.04452 -39.11203 2333 ft 111 kts 74°
2026-04-16 16:48 -8.04313 -39.10377 2349 ft 131 kts 100°
2026-04-16 16:48 -8.04544 -39.09482 2474 ft 125 kts 105°
2026-04-16 16:48 -8.04743 -39.08671 2743 ft 116 kts 106°
2026-04-16 16:49 -8.04950 -39.07874 2975 ft 117 kts 106°
2026-04-16 16:49 -8.05168 -39.07081 3208 ft 117 kts 106°
2026-04-16 16:49 -8.05378 -39.06282 3460 ft 120 kts 105°
2026-04-16 16:49 -8.05576 -39.05458 3692 ft 120 kts 106°
2026-04-16 16:50 -8.05781 -39.04631 3938 ft 122 kts 106°
2026-04-16 16:50 -8.05989 -39.03810 4176 ft 123 kts 105°
2026-04-16 16:50 -8.06190 -39.02974 4422 ft 122 kts 105°
2026-04-16 16:50 -8.06392 -39.02149 4665 ft 120 kts 106°
2026-04-16 16:51 -8.06589 -39.01331 4899 ft 120 kts 105°
2026-04-16 16:51 -8.06772 -39.00514 5137 ft 119 kts 102°
2026-04-16 16:51 -8.06904 -38.99702 5370 ft 115 kts 102°
2026-04-16 16:51 -8.07042 -38.98920 5493 ft 119 kts 102°
2026-04-16 16:52 -8.07193 -38.98050 5506 ft 132 kts 102°
2026-04-16 16:52 -8.07345 -38.97111 5512 ft 137 kts 101°
2026-04-16 16:52 -8.07516 -38.96158 5522 ft 139 kts 102°
2026-04-16 16:52 -8.07692 -38.95194 5523 ft 140 kts 103°
2026-04-16 16:53 -8.07923 -38.94238 5527 ft 141 kts 105°
2026-04-16 16:53 -8.08168 -38.93273 5529 ft 141 kts 105°
2026-04-16 16:53 -8.08408 -38.92305 5533 ft 143 kts 105°
2026-04-16 16:53 -8.08659 -38.91333 5528 ft 143 kts 105°
2026-04-16 16:54 -8.08905 -38.90360 5533 ft 143 kts 105°
2026-04-16 16:54 -8.09151 -38.89385 5531 ft 144 kts 105°
2026-04-16 16:54 -8.09404 -38.88408 5533 ft 143 kts 105°
2026-04-16 16:54 -8.09652 -38.87449 5530 ft 143 kts 105°
2026-04-16 16:55 -8.09900 -38.86478 5535 ft 143 kts 105°
2026-04-16 16:55 -8.10156 -38.85499 5533 ft 145 kts 105°
2026-04-16 16:55 -8.10409 -38.84519 5536 ft 144 kts 105°
2026-04-16 16:55 -8.10657 -38.83537 5534 ft 143 kts 105°
2026-04-16 16:56 -8.10905 -38.82568 5531 ft 143 kts 105°
2026-04-16 16:56 -8.11151 -38.81590 5535 ft 145 kts 106°
2026-04-16 16:56 -8.11397 -38.80608 5537 ft 143 kts 105°
2026-04-16 16:56 -8.11645 -38.79635 5532 ft 143 kts 106°
2026-04-16 16:57 -8.11895 -38.78663 5532 ft 143 kts 105°
2026-04-16 16:57 -8.12370 -38.76738 5534 ft 142 kts 105°
2026-04-16 16:57 -8.12609 -38.75767 5529 ft 143 kts 105°
2026-04-16 16:58 -8.12850 -38.74783 5533 ft 145 kts 105°
2026-04-16 16:58 -8.13091 -38.73791 5531 ft 145 kts 105°
2026-04-16 16:58 -8.13328 -38.72807 5531 ft 144 kts 105°
2026-04-16 16:58 -8.13573 -38.71826 5534 ft 144 kts 105°
2026-04-16 16:59 -8.13817 -38.70845 5531 ft 144 kts 105°
2026-04-16 16:59 -8.14056 -38.69863 5532 ft 144 kts 105°
2026-04-16 16:59 -8.14294 -38.68875 5532 ft 145 kts 105°
2026-04-16 16:59 -8.14534 -38.67893 5529 ft 144 kts 105°
2026-04-16 17:00 -8.14768 -38.66914 5527 ft 142 kts 105°
2026-04-16 17:00 -8.15004 -38.65943 5533 ft 143 kts 105°
2026-04-16 17:00 -8.15239 -38.64965 5535 ft 144 kts 105°
2026-04-16 17:00 -8.15473 -38.63988 5526 ft 145 kts 105°
2026-04-16 17:01 -8.15711 -38.63007 5531 ft 143 kts 105°
2026-04-16 17:01 -8.15945 -38.62029 5530 ft 143 kts 105°
2026-04-16 17:01 -8.16180 -38.61047 5529 ft 144 kts 105°
2026-04-16 17:01 -8.16418 -38.60060 5526 ft 144 kts 105°
2026-04-16 17:02 -8.16655 -38.59080 5529 ft 143 kts 105°
2026-04-16 17:02 -8.16895 -38.58105 5527 ft 143 kts 105°
2026-04-16 17:02 -8.17139 -38.57127 5529 ft 144 kts 105°
2026-04-16 17:02 -8.17374 -38.56145 5528 ft 144 kts 105°
2026-04-16 17:03 -8.17615 -38.55156 5529 ft 146 kts 105°
2026-04-16 17:03 -8.17857 -38.54159 5530 ft 146 kts 105°
2026-04-16 17:03 -8.18094 -38.53162 5526 ft 145 kts 104°
2026-04-16 17:03 -8.18335 -38.52176 5524 ft 145 kts 105°
2026-04-16 17:04 -8.18584 -38.51188 5528 ft 146 kts 105°
2026-04-16 17:04 -8.18828 -38.50188 5524 ft 146 kts 105°
2026-04-16 17:04 -8.19061 -38.49198 5523 ft 147 kts 105°
2026-04-16 17:04 -8.19303 -38.48186 5523 ft 145 kts 104°
2026-04-16 17:05 -8.19541 -38.47216 5525 ft 144 kts 105°
2026-04-16 17:05 -8.19781 -38.46234 5523 ft 144 kts 105°
2026-04-16 17:05 -8.20019 -38.45249 5515 ft 144 kts 105°
2026-04-16 17:05 -8.20250 -38.44269 5518 ft 144 kts 104°
2026-04-16 17:06 -8.20485 -38.43287 5520 ft 143 kts 105°
2026-04-16 17:06 -8.20714 -38.42305 5522 ft 144 kts 104°
2026-04-16 17:06 -8.20942 -38.41319 5521 ft 144 kts 104°
2026-04-16 17:06 -8.21180 -38.40339 5519 ft 143 kts 105°
2026-04-16 17:07 -8.21414 -38.39359 5520 ft 144 kts 105°
2026-04-16 17:07 -8.21640 -38.38373 5523 ft 145 kts 104°
2026-04-16 17:07 -8.21869 -38.37383 5522 ft 144 kts 105°
2026-04-16 17:07 -8.22099 -38.36393 5521 ft 145 kts 104°
2026-04-16 17:08 -8.22332 -38.35401 5519 ft 145 kts 105°
2026-04-16 17:08 -8.22558 -38.34425 5517 ft 144 kts 105°
2026-04-16 17:08 -8.22785 -38.33439 5517 ft 144 kts 104°
2026-04-16 17:08 -8.23015 -38.32448 5521 ft 145 kts 104°
2026-04-16 17:09 -8.23245 -38.31451 5525 ft 147 kts 104°
2026-04-16 17:09 -8.23480 -38.30440 5530 ft 149 kts 104°
2026-04-16 17:09 -8.23717 -38.29420 5523 ft 148 kts 104°
2026-04-16 17:09 -8.23949 -38.28416 5523 ft 146 kts 104°
2026-04-16 17:10 -8.24183 -38.27426 5523 ft 144 kts 104°
2026-04-16 17:10 -8.24413 -38.26437 5522 ft 145 kts 104°
2026-04-16 17:10 -8.24636 -38.25445 5523 ft 145 kts 105°
2026-04-16 17:10 -8.24859 -38.24447 5524 ft 146 kts 104°
2026-04-16 17:11 -8.25078 -38.23453 5526 ft 145 kts 104°
2026-04-16 17:11 -8.25296 -38.22457 5518 ft 144 kts 104°
2026-04-16 17:11 -8.25509 -38.21483 5523 ft 144 kts 105°
2026-04-16 17:11 -8.25725 -38.20492 5520 ft 144 kts 104°
2026-04-16 17:12 -8.25940 -38.19505 5518 ft 143 kts 104°
2026-04-16 17:12 -8.26162 -38.18526 5522 ft 143 kts 105°
2026-04-16 17:12 -8.26365 -38.17536 5515 ft 144 kts 105°
2026-04-16 17:12 -8.26575 -38.16551 5521 ft 143 kts 105°
2026-04-16 17:13 -8.26782 -38.15576 5521 ft 144 kts 104°
2026-04-16 17:13 -8.26991 -38.14584 5523 ft 145 kts 104°
2026-04-16 17:13 -8.27206 -38.13587 5524 ft 146 kts 104°
2026-04-16 17:13 -8.27417 -38.12578 5524 ft 146 kts 104°
2026-04-16 17:14 -8.27555 -38.11912 5520 ft 146 kts 104°
2026-04-16 17:14 -8.27845 -38.10594 5524 ft 145 kts 105°
2026-04-16 17:14 -8.28057 -38.09605 5520 ft 143 kts 104°
2026-04-16 17:14 -8.28272 -38.08632 5520 ft 142 kts 104°
2026-04-16 17:15 -8.28488 -38.07656 5523 ft 143 kts 104°
2026-04-16 17:15 -8.28635 -38.06992 5526 ft 144 kts 104°
2026-04-16 17:15 -8.28853 -38.06000 5528 ft 144 kts 104°
2026-04-16 17:15 -8.29078 -38.05011 5529 ft 145 kts 105°
2026-04-16 17:16 -8.29300 -38.04014 5527 ft 145 kts 104°
2026-04-16 17:16 -8.29519 -38.03016 5528 ft 145 kts 104°
2026-04-16 17:16 -8.29743 -38.02038 5526 ft 144 kts 104°
2026-04-16 17:16 -8.29963 -38.01047 5526 ft 144 kts 104°
2026-04-16 17:17 -8.30189 -38.00056 5523 ft 144 kts 104°
2026-04-16 17:17 -8.30406 -37.99066 5525 ft 145 kts 104°
2026-04-16 17:17 -8.30624 -37.98068 5523 ft 145 kts 104°
2026-04-16 17:17 -8.30848 -37.97079 5528 ft 145 kts 104°
2026-04-16 17:18 -8.31066 -37.96080 5525 ft 145 kts 104°
2026-04-16 17:18 -8.31277 -37.95099 5529 ft 145 kts 104°
2026-04-16 17:18 -8.31491 -37.94091 5527 ft 148 kts 104°
2026-04-16 17:18 -8.31706 -37.93076 5528 ft 147 kts 104°
2026-04-16 17:19 -8.31916 -37.92065 5526 ft 146 kts 104°
2026-04-16 17:19 -8.32133 -37.91063 5524 ft 145 kts 104°
2026-04-16 17:19 -8.32342 -37.90068 5522 ft 144 kts 104°
2026-04-16 17:19 -8.32552 -37.89080 5525 ft 144 kts 104°
2026-04-16 17:20 -8.32765 -37.88090 5522 ft 144 kts 104°
2026-04-16 17:20 -8.32976 -37.87103 5521 ft 143 kts 104°
2026-04-16 17:20 -8.33182 -37.86127 5525 ft 144 kts 104°
2026-04-16 17:20 -8.33394 -37.85135 5523 ft 144 kts 104°
2026-04-16 17:21 -8.33607 -37.84143 5527 ft 145 kts 104°
2026-04-16 17:21 -8.33826 -37.83150 5525 ft 144 kts 104°
2026-04-16 17:21 -8.34044 -37.82160 5526 ft 143 kts 104°
2026-04-16 17:21 -8.34259 -37.81169 5525 ft 145 kts 103°
2026-04-16 17:22 -8.34477 -37.80185 5524 ft 145 kts 104°
2026-04-16 17:22 -8.34694 -37.79201 5524 ft 143 kts 103°
2026-04-16 17:22 -8.34915 -37.78212 5525 ft 145 kts 104°
2026-04-16 17:22 -8.35135 -37.77217 5527 ft 145 kts 104°
2026-04-16 17:23 -8.35350 -37.76216 5525 ft 146 kts 104°
2026-04-16 17:23 -8.35565 -37.75209 5526 ft 147 kts 104°
2026-04-16 17:23 -8.35780 -37.74198 5528 ft 146 kts 104°
2026-04-16 17:23 -8.35993 -37.73193 5531 ft 147 kts 103°
2026-04-16 17:24 -8.36209 -37.72182 5532 ft 148 kts 104°
2026-04-16 17:24 -8.36422 -37.71166 5532 ft 148 kts 103°
2026-04-16 17:24 -8.36638 -37.70150 5530 ft 148 kts 104°
2026-04-16 17:24 -8.36850 -37.69136 5534 ft 148 kts 103°
2026-04-16 17:25 -8.37062 -37.68119 5534 ft 148 kts 104°
2026-04-16 17:25 -8.37274 -37.67103 5528 ft 147 kts 104°
2026-04-16 17:25 -8.37486 -37.66091 5527 ft 147 kts 104°
2026-04-16 17:25 -8.37697 -37.65086 5526 ft 145 kts 103°
2026-04-16 17:26 -8.37909 -37.64084 5523 ft 146 kts 103°
2026-04-16 17:26 -8.38123 -37.63086 5525 ft 145 kts 104°
2026-04-16 17:26 -8.38333 -37.62088 5522 ft 145 kts 103°
2026-04-16 17:26 -8.38545 -37.61102 5523 ft 145 kts 103°
2026-04-16 17:27 -8.38759 -37.60108 5527 ft 144 kts 103°
2026-04-16 17:27 -8.38975 -37.59115 5525 ft 145 kts 104°
2026-04-16 17:27 -8.39185 -37.58119 5523 ft 145 kts 104°
2026-04-16 17:27 -8.39396 -37.57124 5523 ft 145 kts 103°
2026-04-16 17:28 -8.39610 -37.56129 5522 ft 145 kts 103°
2026-04-16 17:28 -8.39818 -37.55125 5522 ft 145 kts 103°
2026-04-16 17:28 -8.40030 -37.54129 5527 ft 145 kts 104°
2026-04-16 17:28 -8.40241 -37.53129 5528 ft 145 kts 103°
2026-04-16 17:29 -8.40453 -37.52129 5523 ft 146 kts 104°
2026-04-16 17:29 -8.40661 -37.51122 5531 ft 147 kts 103°
2026-04-16 17:29 -8.40874 -37.50111 5531 ft 147 kts 103°
2026-04-16 17:29 -8.41088 -37.49097 5535 ft 148 kts 103°
2026-04-16 17:30 -8.41295 -37.48091 5531 ft 147 kts 103°
2026-04-16 17:30 -8.41501 -37.47079 5535 ft 147 kts 103°
2026-04-16 17:30 -8.41708 -37.46059 5535 ft 148 kts 103°
2026-04-16 17:30 -8.41914 -37.45040 5532 ft 148 kts 103°
2026-04-16 17:31 -8.42116 -37.44023 5530 ft 147 kts 103°
2026-04-16 17:31 -8.42321 -37.43017 5527 ft 145 kts 103°
2026-04-16 17:31 -8.42519 -37.42022 5531 ft 145 kts 103°
2026-04-16 17:31 -8.42717 -37.41023 5524 ft 145 kts 103°
2026-04-16 17:32 -8.42920 -37.40018 5530 ft 147 kts 103°
2026-04-16 17:32 -8.43122 -37.39011 5525 ft 145 kts 103°
2026-04-16 17:32 -8.43317 -37.38014 5530 ft 145 kts 103°
2026-04-16 17:32 -8.43512 -37.37015 5529 ft 145 kts 103°
2026-04-16 17:33 -8.43713 -37.36017 5532 ft 145 kts 104°
2026-04-16 17:33 -8.43911 -37.35018 5530 ft 144 kts 103°
2026-04-16 17:33 -8.44107 -37.34036 5530 ft 144 kts 103°
2026-04-16 17:33 -8.44308 -37.33047 5532 ft 144 kts 103°
2026-04-16 17:34 -8.44511 -37.32051 5535 ft 146 kts 103°
2026-04-16 17:34 -8.44713 -37.31040 5537 ft 147 kts 103°
2026-04-16 17:34 -8.44924 -37.30039 5530 ft 144 kts 103°
2026-04-16 17:34 -8.45125 -37.29048 5536 ft 144 kts 103°
2026-04-16 17:35 -8.45321 -37.28063 5531 ft 142 kts 103°
2026-04-16 17:35 -8.45524 -37.27081 5537 ft 145 kts 103°
2026-04-16 17:35 -8.45731 -37.26074 5537 ft 147 kts 103°
2026-04-16 17:35 -8.45936 -37.25070 5534 ft 145 kts 103°
2026-04-16 17:36 -8.46143 -37.24069 5538 ft 147 kts 103°
2026-04-16 17:36 -8.46342 -37.23067 5537 ft 147 kts 103°
2026-04-16 17:36 -8.46551 -37.22064 5535 ft 145 kts 104°
2026-04-16 17:36 -8.46745 -37.21062 5533 ft 145 kts 102°
2026-04-16 17:37 -8.46943 -37.20059 5538 ft 146 kts 103°
2026-04-16 17:37 -8.47138 -37.19044 5531 ft 147 kts 103°
2026-04-16 17:37 -8.47321 -37.18026 5538 ft 147 kts 102°
2026-04-16 17:37 -8.47510 -37.17013 5537 ft 146 kts 103°
2026-04-16 17:38 -8.47696 -37.16007 5537 ft 145 kts 103°
2026-04-16 17:38 -8.47878 -37.15003 5537 ft 145 kts 102°
2026-04-16 17:38 -8.48069 -37.14002 5537 ft 145 kts 103°
2026-04-16 17:38 -8.48254 -37.13003 5540 ft 145 kts 103°
2026-04-16 17:39 -8.48438 -37.12010 5533 ft 142 kts 103°
2026-04-16 17:39 -8.48618 -37.11043 5536 ft 143 kts 102°
2026-04-16 17:39 -8.48796 -37.10041 5536 ft 145 kts 102°
2026-04-16 17:39 -8.48983 -37.09052 5530 ft 141 kts 103°
2026-04-16 17:40 -8.49152 -37.08070 5530 ft 142 kts 102°
2026-04-16 17:40 -8.49326 -37.07082 5537 ft 143 kts 103°
2026-04-16 17:40 -8.49510 -37.06088 5539 ft 144 kts 102°
2026-04-16 17:40 -8.49703 -37.05091 5538 ft 144 kts 103°
2026-04-16 17:41 -8.49894 -37.04096 5540 ft 144 kts 103°
2026-04-16 17:41 -8.50090 -37.03102 5540 ft 144 kts 103°
2026-04-16 17:41 -8.50272 -37.02101 5539 ft 145 kts 102°
2026-04-16 17:41 -8.50459 -37.01098 5546 ft 146 kts 103°
2026-04-16 17:42 -8.50645 -37.00086 5541 ft 147 kts 103°
2026-04-16 17:42 -8.50826 -36.99075 5543 ft 146 kts 103°
2026-04-16 17:42 -8.51005 -36.98065 5544 ft 146 kts 103°
2026-04-16 17:42 -8.51186 -36.97053 5543 ft 146 kts 103°
2026-04-16 17:43 -8.51360 -36.96059 5542 ft 146 kts 102°
2026-04-16 17:43 -8.51545 -36.95051 5545 ft 146 kts 103°
2026-04-16 17:43 -8.51720 -36.94040 5545 ft 146 kts 102°
2026-04-16 17:43 -8.51902 -36.93021 5550 ft 148 kts 103°
2026-04-16 17:44 -8.52085 -36.91998 5545 ft 147 kts 102°
2026-04-16 17:44 -8.52265 -36.90977 5551 ft 148 kts 102°
2026-04-16 17:44 -8.52446 -36.89953 5547 ft 148 kts 103°
2026-04-16 17:44 -8.52623 -36.88934 5544 ft 146 kts 102°
2026-04-16 17:45 -8.52804 -36.87927 5548 ft 145 kts 102°
2026-04-16 17:45 -8.52994 -36.86928 5547 ft 144 kts 103°
2026-04-16 17:45 -8.53174 -36.85931 5543 ft 144 kts 102°
2026-04-16 17:45 -8.53362 -36.84935 5544 ft 144 kts 103°
2026-04-16 17:46 -8.53542 -36.83939 5542 ft 144 kts 102°
2026-04-16 17:46 -8.53727 -36.82954 5542 ft 145 kts 103°
2026-04-16 17:46 -8.53905 -36.81955 5543 ft 144 kts 102°
2026-04-16 17:46 -8.54080 -36.80959 5546 ft 145 kts 102°
2026-04-16 17:47 -8.54265 -36.79960 5543 ft 144 kts 103°
2026-04-16 17:47 -8.54442 -36.78960 5551 ft 146 kts 102°
2026-04-16 17:47 -8.54631 -36.77935 5556 ft 150 kts 103°
2026-04-16 17:47 -8.54819 -36.76897 5548 ft 149 kts 102°
2026-04-16 17:48 -8.55005 -36.75889 5552 ft 145 kts 102°
2026-04-16 17:48 -8.55183 -36.74888 5555 ft 146 kts 102°
2026-04-16 17:48 -8.55362 -36.73871 5551 ft 147 kts 103°
2026-04-16 17:48 -8.55528 -36.72852 5554 ft 147 kts 101°
2026-04-16 17:49 -8.55699 -36.71831 5551 ft 147 kts 102°
2026-04-16 17:49 -8.55869 -36.70813 5548 ft 147 kts 102°
2026-04-16 17:49 -8.56042 -36.69805 5546 ft 144 kts 103°
2026-04-16 17:49 -8.56203 -36.68804 5547 ft 144 kts 102°
2026-04-16 17:50 -8.56376 -36.67805 5544 ft 144 kts 103°
2026-04-16 17:50 -8.56547 -36.66800 5545 ft 146 kts 102°
2026-04-16 17:50 -8.56715 -36.65798 5544 ft 144 kts 102°
2026-04-16 17:50 -8.56881 -36.64798 5551 ft 146 kts 102°
2026-04-16 17:51 -8.57050 -36.63788 5537 ft 144 kts 102°
2026-04-16 17:51 -8.57217 -36.62811 5549 ft 143 kts 102°
2026-04-16 17:51 -8.57392 -36.61816 5542 ft 144 kts 102°
2026-04-16 17:51 -8.57564 -36.60828 5545 ft 141 kts 102°
2026-04-16 17:52 -8.57732 -36.59841 5544 ft 143 kts 101°
2026-04-16 17:52 -8.57913 -36.58863 5540 ft 139 kts 103°
2026-04-16 17:52 -8.58081 -36.57899 5547 ft 141 kts 101°
2026-04-16 17:52 -8.58256 -36.56914 5548 ft 142 kts 103°
2026-04-16 17:53 -8.58427 -36.55923 5554 ft 145 kts 102°
2026-04-16 17:53 -8.58596 -36.54915 5552 ft 145 kts 102°
2026-04-16 17:53 -8.58766 -36.53906 5555 ft 146 kts 102°
2026-04-16 17:53 -8.58937 -36.52895 5548 ft 145 kts 101°
2026-04-16 17:54 -8.59115 -36.51901 5556 ft 146 kts 102°
2026-04-16 17:54 -8.59288 -36.50882 5556 ft 147 kts 101°
2026-04-16 17:54 -8.59466 -36.49868 5559 ft 146 kts 102°
2026-04-16 17:54 -8.59637 -36.48851 5559 ft 148 kts 102°
2026-04-16 17:55 -8.59813 -36.47827 5557 ft 148 kts 102°
2026-04-16 17:55 -8.59984 -36.46803 5555 ft 148 kts 101°
2026-04-16 17:55 -8.59698 -36.45812 5493 ft 157 kts 53°
2026-04-16 17:55 -8.58750 -36.45255 5479 ft 158 kts 27°
2026-04-16 17:56 -8.57962 -36.44541 5445 ft 152 kts 60°
2026-04-16 17:56 -8.57400 -36.43672 5444 ft 150 kts 61°
2026-04-16 17:56 -8.56233 -36.41920 5443 ft 150 kts 60°
2026-04-16 17:57 -8.55646 -36.41042 5445 ft 151 kts 59°
2026-04-16 17:57 -8.55064 -36.40157 5446 ft 151 kts 59°
2026-04-16 17:57 -8.54484 -36.39274 5445 ft 151 kts 60°
2026-04-16 17:57 -8.53903 -36.38392 5453 ft 151 kts 61°
2026-04-16 17:58 -8.53309 -36.37507 5447 ft 152 kts 59°
2026-04-16 17:58 -8.52713 -36.36618 5446 ft 153 kts 60°
2026-04-16 17:58 -8.52113 -36.35734 5447 ft 153 kts 59°
2026-04-16 17:58 -8.51513 -36.34847 5446 ft 152 kts 60°
2026-04-16 17:59 -8.50919 -36.33966 5447 ft 152 kts 59°
2026-04-16 17:59 -8.50325 -36.33081 5449 ft 153 kts 60°
2026-04-16 17:59 -8.49726 -36.32190 5448 ft 154 kts 59°
2026-04-16 17:59 -8.49127 -36.31296 5450 ft 153 kts 59°
2026-04-16 18:00 -8.48733 -36.30707 5444 ft 153 kts 59°
2026-04-16 18:00 -8.47950 -36.29523 5451 ft 153 kts 60°
2026-04-16 18:00 -8.47354 -36.28635 5452 ft 152 kts 59°
2026-04-16 18:00 -8.46956 -36.28034 5452 ft 153 kts 59°
2026-04-16 18:01 -8.46362 -36.27144 5454 ft 154 kts 59°
2026-04-16 18:01 -8.45764 -36.26259 5448 ft 154 kts 59°
2026-04-16 18:01 -8.45167 -36.25370 5441 ft 152 kts 60°
2026-04-16 18:01 -8.44572 -36.24487 5447 ft 151 kts 61°
2026-04-16 18:02 -8.43977 -36.23613 5448 ft 151 kts 59°
2026-04-16 18:02 -8.43581 -36.23032 5448 ft 152 kts 60°